Notices

What's New in latest Release from April 7th, 2021:

- Updated Glossary, including Speed of Maximum Gust, and Total Hourly Precipitation

- Updated national and regional climate services offices contacts and prices information

- Addition of station inventory lists for 1981-2010, 1971-2000, and 1961-1990 Normals.

If you haven't already, please take our survey and provide feedback about our website: https://eccc.sondage-survey.ca/f/LanguageSelection.aspx?s=442ca660-fcf1-47c0-95a9-59707d6fd709

Hourly Data Report for April 06, 2004

TORONTO CITY
ONTARIO

43°40'00.000" N
79°24'00.000" W
112.50 m
6158355
71508
XTO

Download Data

Hourly Data (April 2004)
Hourly Data Report for April 6, 2004
TIME
LST
Temp Definition
°C
Dew Point Definition
°C
Rel Hum Definition
%
Precip. Amount Definition
mm

Wind Dir Definition
10's deg

Wind Spd Definition
km/h
Visibility Definition
km
Stn Press Definition
kPa
Hmdx Definition


Wind Chill Definition


Weather Definition


00:00 -1.7 -9.4 56   LegendMM LegendMM LegendMM 100.44     LegendNANA
01:00 -1.9 -9.4 56   LegendMM LegendMM LegendMM 100.41     LegendNANA
02:00 -1.4 -10.6 50   LegendMM LegendMM LegendMM 100.35     LegendNANA
03:00 -2.1 -9.8 56   LegendMM LegendMM LegendMM 100.33     LegendNANA
04:00 -2.3 -9.3 59   LegendMM LegendMM LegendMM 100.32     LegendNANA
05:00 -2.6 -8.8 62   LegendMM LegendMM LegendMM 100.32     LegendNANA
06:00 -2.4 -8.4 63   LegendMM LegendMM LegendMM 100.35     LegendNANA
07:00 -1.3 -7.5 63   LegendMM LegendMM LegendMM 100.38     LegendNANA
08:00 0.7 -6.9 57   LegendMM LegendMM LegendMM 100.38     LegendNANA
09:00 2.8 -6.7 50   LegendMM LegendMM LegendMM 100.35     LegendNANA
10:00 4.5 -6.8 44   LegendMM LegendMM LegendMM 100.34     LegendNANA
11:00 4.0 -5.6 50   LegendMM LegendMM LegendMM 100.30     LegendNANA
12:00 4.2 -6.8 45   LegendMM LegendMM LegendMM 100.22     LegendNANA
13:00 5.9 -10.0 31   LegendMM LegendMM LegendMM 100.11     LegendNANA
14:00 6.8 -7.3 36   LegendMM LegendMM LegendMM 100.00     LegendNANA
15:00 6.7 -5.7 41   LegendMM LegendMM LegendMM 99.91     LegendNANA
16:00 6.8 -2.7 51   LegendMM LegendMM LegendMM 99.84     LegendNANA
17:00 5.5 2.3 80   LegendMM LegendMM LegendMM 99.83     LegendNANA
18:00 4.3 3.1 92   LegendMM LegendMM LegendMM 99.79     LegendNANA
19:00 4.0 3.0 93   LegendMM LegendMM LegendMM 99.75     LegendNANA
20:00 4.0 3.0 93   LegendMM LegendMM LegendMM 99.72     LegendNANA
21:00 3.7 2.8 94   LegendMM LegendMM LegendMM 99.64     LegendNANA
22:00 3.4 2.5 94   LegendMM LegendMM LegendMM 99.58     LegendNANA
23:00 3.5 2.8 95   LegendMM LegendMM LegendMM 99.51     LegendNANA

Notes on Data Quality.

Legend

  • E = Estimated
  • M = Missing
  • NA = Not Available*
  • [empty] = Indicates an unobserved value
Date modified: